Weather History for Saranac Lake, NY

Change the Weather History Date:

Sunday, December 19, 2010

  Actual Average Record
Temperature  
Mean Temperature 10 °F 18 °F  
Max Temperature 26 °F 28 °F 44 °F (1949)
Min Temperature -7 °F 8 °F -21 °F (1985)
Degree Days  
Heating Degree Days 56 47  
Month to date heating degree days 833  
Since 1 July heating degree days 3108  
Cooling Degree Days 0 0  
Month to date cooling degree days 0  
Year to date cooling degree days 114  
Moisture  
Dew Point 3 °F    
Average Humidity 85    
Maximum Humidity 96    
Minimum Humidity 58    
Precipitation  
Precipitation 0.00 in 0.06 in 1.00 in (1951)
Month to date precipitation 1.52  
Year to date precipitation 36.75  
Sea Level Pressure  
Sea Level Pressure 30.02 in    
Wind  
Wind Speed 0 mph (North)    
Max Wind Speed 0 mph    
Max Gust Speed -    
Visibility 9 miles    
Events Fog    
T = Trace of Precipitation, MM = Missing Value Source: NWS Daily Summary

Daily Weather History Graph

Daily Weather History Graph

Search for Another Location

Airport:

Trip Planner

Search our weather history database for the weather conditions in past years. The results will help you decide how hot, cold, wet, or windy it might be!

Date:

Astronomy

Dec. 19, 2010 Rise Set
Actual Time 7:28 AM EST 4:19 PM EST
Civil Twilight 6:55 AM EST 4:52 PM EST
Nautical Twilight 6:18 AM EST 5:29 PM EST
Astronomical Twilight 5:42 AM EST 6:04 PM EST
Moon 2:48 PM EST (12/19) 5:50 AM EST (12/19)
Length of Visible Light 9h 57m
Length of Day
8h 50m
Waxing Gibbous, 97% of the Moon is Illuminated
Dec 19
Waxing Gibbous
Dec 21
Full
Dec 27
Last Quarter
Jan 4
New
Jan 12
First Quarter

Hourly Weather History & Observations

Time (EST) Temp. Dew Point Humidity Pressure Visibility Wind Dir Wind Speed Gust Speed Precip Events Conditions
12:51 AM -2.9 °F -6.0 °F 87% 30.07 in 10.0 mi Calm Calm - N/A   Clear
1:51 AM -4.0 °F -8.0 °F 83% 30.08 in 10.0 mi Calm Calm - N/A   Clear
2:51 AM -6.0 °F -9.9 °F 83% 30.09 in 10.0 mi Calm Calm - N/A   Clear
3:51 AM -6.0 °F -11.0 °F 79% 30.09 in 10.0 mi Calm Calm - N/A   Clear
4:51 AM -7.1 °F -11.0 °F 83% 30.09 in 10.0 mi Calm Calm - N/A   Overcast
5:51 AM -6.0 °F -9.9 °F 83% 30.09 in 10.0 mi Calm Calm - N/A   Mostly Cloudy
6:51 AM -0.0 °F -4.0 °F 83% 30.08 in 10.0 mi Calm Calm - N/A   Overcast
7:51 AM 1.9 °F -0.0 °F 91% 30.09 in 10.0 mi Calm Calm - N/A   Overcast
9:51 AM 9.0 °F 8.1 °F 96% 30.11 in 10.0 mi Calm Calm - N/A   Overcast
10:51 AM 14.0 °F 12.0 °F 92% 30.09 in 10.0 mi Calm Calm - N/A   Clear
11:51 AM 21.0 °F 14.0 °F 74% 30.05 in 10.0 mi Calm Calm - N/A   Clear
12:51 PM 26.1 °F 16.0 °F 66% 30.02 in 10.0 mi Calm Calm - N/A   Clear
1:51 PM 26.1 °F 12.9 °F 58% 30.02 in 10.0 mi Calm Calm - N/A   Clear
2:51 PM 25.0 °F 15.1 °F 66% 30.02 in 10.0 mi Calm Calm - N/A   Clear
3:51 PM 24.1 °F 16.0 °F 71% 30.02 in 10.0 mi Calm Calm - N/A   Clear
4:51 PM 14.0 °F 12.9 °F 95% 30.04 in 10.0 mi Calm Calm - N/A   Partly Cloudy
5:12 PM 12.2 °F 10.4 °F 92% 29.92 in 10.0 mi Calm Calm - N/A   Mostly Cloudy
5:28 PM 14.0 °F 12.2 °F 93% 29.92 in - Calm Calm - N/A   Unknown
5:51 PM 12.0 °F 10.0 °F 92% 30.05 in 10.0 mi Calm Calm - N/A   Unknown
6:51 PM 6.1 °F 3.9 °F 91% 30.05 in 10.0 mi Calm Calm - N/A   Partly Cloudy
7:51 PM 5.0 °F 1.9 °F 87% 30.03 in 10.0 mi Calm Calm - N/A   Scattered Clouds
9:51 PM 1.9 °F -0.9 °F 88% 30.01 in 10.0 mi Calm Calm - N/A   Partly Cloudy
10:07 PM 1.4 °F -0.4 °F 92% 29.89 in 10.0 mi Calm Calm - N/A   Scattered Clouds
10:16 PM 1.4 °F -0.4 °F 92% 29.89 in 10.0 mi Calm Calm - N/A   Mostly Cloudy
10:51 PM 1.9 °F -0.9 °F 88% 30.00 in 10.0 mi Calm Calm - N/A   Overcast
11:25 PM 3.2 °F -0.4 °F 85% 29.88 in 1.8 mi Calm Calm - N/A   Overcast
11:31 PM 3.2 °F 1.4 °F 92% 29.88 in 0.2 mi Calm Calm - N/A Fog Light Freezing Fog
11:51 PM 5.0 °F 1.9 °F 87% 29.98 in 0.2 mi Calm Calm - N/A Fog Light Freezing Fog